Flag for Germany Weather past 2 weeks in Alfeld (Leine), Lower Saxony, Germany

Now
63 °F

Scattered clouds.


Feels Like: 63 °F
Forecast: 50 / 64 °F
Wind: 13 mph from West

Location: Braunschweig

Current Time: Sep 2, 2015 at 1:01:29 PM

Latest Report: Sep 2, 2015 at 12:20 PM


Visibility: N/A

Pressure: 30.01 "Hg

Humidity: 59%

Dew point: 48 °F

Location of Alfeld (Leine)Location

Historic Weather in Alfeld (Leine) — Graph

°F

Alfeld (Leine) temperature yesterday

Maximum temperature yesterday: 72 °F (at 12:20 PM)
Minimum temperature yesterday: 59 °F (at 7:20 PM)
Average temperature yesterday: 65 °F

Past Weeks' High & Low Weather Summary

 TemperatureHumidityPressure
High91 °F (Aug 31, 4:50 PM)100% (Aug 18, 11:20 AM)30.30 "Hg (Aug 18, 11:20 AM)
Low50 °F (Aug 21, 6:50 AM)30% (Aug 21, 2:50 PM)29.65 "Hg (Aug 24, 5:20 PM)
Average68 °F73%29.98 "Hg
* Reported Aug 18 11:20 AM — Sep 2 11:50 AM, Alfeld (Leine), Weather by CustomWeather, © 2015

Note: Actual official high and low records may vary slightly from our data, if they occured in-between our weather recording intervals... More about our weather records

Advertising

Alfeld (Leine) weather history for previous 24 hours

 ConditionsComfort  
Time TempWeatherWind HumidityBarometerVisibility
11:50 AM
Wed, Sep 2
63 °FScattered clouds.13 mph64%30.01 "HgN/A
11:20 AM61 °FPassing clouds.13 mph72%30.01 "HgN/A
10:50 AM61 °FScattered clouds.15 mph72%30.01 "HgN/A
10:20 AM59 °FPassing clouds.14 mph77%30.01 "HgN/A
9:50 AM59 °FPassing clouds.15 mph77%30.01 "HgN/A
9:20 AM57 °FPassing clouds.14 mph82%30.01 "HgN/A
8:50 AM57 °FSunny.13 mph88%30.01 "Hg10 mi
8:20 AM55 °FPassing clouds.12 mph94%30.01 "HgN/A
7:50 AM55 °FPassing clouds.12 mph94%30.01 "HgN/A
7:20 AM54 °FPassing clouds.9 mph100%30.01 "HgN/A
6:50 AM54 °FPassing clouds.9 mph100%29.98 "HgN/A
9:50 PM
Tue, Sep 1
59 °FPartly cloudy.7 mph100%29.92 "HgN/A
9:20 PM59 °FPassing clouds.8 mph100%29.92 "HgN/A
8:50 PM59 °FBroken clouds.7 mph100%29.92 "HgN/A
8:20 PM59 °FPartly sunny.6 mph100%29.89 "HgN/A
7:50 PM59 °FLight rain. Partly sunny.7 mph100%29.89 "HgN/A
7:20 PM59 °FOvercast.8 mph100%29.89 "HgN/A
6:50 PM61 °FMore clouds than sun.9 mph100%29.86 "HgN/A
6:20 PM61 °FLight rain. Clear.8 mph100%29.86 "HgN/A
5:50 PM61 °FLight rain. Clear.9 mph100%29.86 "HgN/A
5:20 PM61 °FDrizzle. Cloudy.10 mph100%29.86 "HgN/A
4:50 PM61 °FLight rain. Cloudy.9 mph100%29.83 "Hg5 mi
4:20 PM63 °FDrizzle. More clouds than sun.7 mph100%29.83 "HgN/A
3:50 PM63 °FRain. More clouds than sun.8 mph100%29.83 "Hg4 mi
3:20 PM61 °FLight rain. Cloudy.9 mph100%29.83 "HgN/A
2:50 PM63 °FLight rain. More clouds than sun.10 mph100%29.80 "Hg6 mi
2:20 PM63 °FSleet. Mostly cloudy.10 mph100%29.80 "Hg6 mi
1:50 PM66 °FRain. Overcast.7 mph94%29.80 "Hg6 mi
1:20 PM66 °FLight rain. Mostly cloudy.7 mph88%29.80 "HgN/A
Weather by CustomWeather, © 2015

See weather overviewHow to use our weather pages